Weather Roundup
Issued by NWS

Home | Current Version | Previous Version | Graphics & Text | Print | Product List | Glossary Off
Versions: 1 2 3 4 5 6 7 8 9 10 11 12 13 14 15 16 17 18 19 20 21 22 23 24 25 26 27 28 29 30 31 32 33 34 35 36 37 38 39 40 41 42 43 44 45 46 47 48 49 50

000
NZUS93 KARX 281359
HRRWXR

CURRENT HOURLY OBSERVATIONS ACROSS
MUCH OF THE UPPER MISSISSIPPI VALLEY
NATIONAL WEATHER SERVICE LA CROSSE WI
900 AM CDT THU MAY 28 2015


...SOUTHEAST MINNESOTA...


CITY           SKY/WX    TMP DP  RH WIND       PRES   REMARKS
ROCHESTER      MOSUNNY   71  60  68 SW12      30.14R
ROCHESTER/MAYO FAIR      70  57  62 S5        30.13S
WINONA         SUNNY     72  61  68 SW3       30.13R
AUSTIN         MOSUNNY   68  59  73 S6        30.13S
ALBERT LEA     MOSUNNY   70  55  60 S10       30.12S
DODGE CENTER   MOSUNNY   72  55  56 SW13      30.12S
PRESTON        MOSUNNY   69  58  67 SW9       30.15S
OWATONNA       MOSUNNY   72  55  56 S12       30.10F
FARIBAULT      SUNNY     72  57  60 S7        30.10S
$$

...ELSEWHERE IN MINNESOTA...


CITY           SKY/WX    TMP DP  RH WIND       PRES   REMARKS
MINNEAPOLIS    PTSUNNY   73  54  51 S6        30.07R
INTNL FALLS    CLOUDY    59  48  67 SE9       30.00F
DULUTH         MOSUNNY   50  42  74 E16       30.09F
RED WING       NOT AVBL
REDWOOD FALLS  MOSUNNY   73  55  53 S12       30.03F
MANKATO        SUNNY     70  55  60 S9        30.08S
WORTHINGTON    MOSUNNY   72  52  49 S17       30.07R
FAIRMONT       MOSUNNY   68  54  60 S12       30.08S
$$

...SOUTHWEST WISCONSIN...


CITY           SKY/WX    TMP DP  RH WIND       PRES   REMARKS
LA CROSSE      SUNNY     71  59  65 S8        30.14R
PRAIRIE DU CHI SUNNY     68  57  67 S3        30.16S
BOSCOBEL       SUNNY     68  61  78 CALM      30.17S
LONE ROCK      NOT AVBL
PLATTEVILLE    SUNNY     70  61  72 S6        30.19R
FORT MC COY    SUNNY     70  58  64 SW3       30.15S
VIROQUA        FAIR      69  59  69 SW8       30.17S
WIS DELLS      SUNNY     70  57  65 SW9       30.17R
$$

...ELSEWHERE IN WISCONSIN...


CITY           SKY/WX    TMP DP  RH WIND       PRES   REMARKS
MILWAUKEE      MOSUNNY   72  56  57 W10       30.19R
MADISON        MOSUNNY   72  57  59 SW6       30.19R
GREEN BAY      SUNNY     69  61  75 CALM      30.15S
EAU CLAIRE     SUNNY     71  59  65 S6        30.10S
BLACK RVR FLS  FAIR      69  59  69 SW5       30.13S
MEDFORD        SUNNY     65  61  86 S5        30.14R
WAUSAU         SUNNY     66  59  78 VRB6      30.13R
WIS RAPIDS     SUNNY     70  60  70 SW7       30.17R
MARSHFIELD     SUNNY     69  60  73 SW7       30.15R
RICE LAKE      SUNNY     66  57  73 SE6       30.10F
$$

...NORTHEAST IOWA...


CITY           SKY/WX    TMP DP  RH WIND       PRES   REMARKS
DECORAH        MOSUNNY   70  59  68 VRB5      30.15S
MASON CITY     PTSUNNY   72  60  66 S13       30.14S
CHARLES CITY   PTSUNNY   68  63  83 S10       30.15S
OELWEIN        PTSUNNY   68  61  77 S9        30.17S
$$

...ELSEWHERE IN IOWA...


CITY           SKY/WX    TMP DP  RH WIND       PRES   REMARKS
DES MOINES     PTSUNNY   70  58  65 S9        30.12F
IOWA CITY      PTSUNNY   69  61  75 S7        30.18S
FORT DODGE     PTSUNNY   70  57  64 S10       30.12S
$$

...NORTHERN ILLINOIS...


CITY           SKY/WX    TMP DP  RH WIND       PRES   REMARKS
CHICAGO-OHARE  MOSUNNY   71  56  58 CALM      30.20S
CHICAGO-MIDWAY MOSUNNY   74  57  55 CALM      30.21R
MOLINE         MOSUNNY   72  59  63 S12       30.18S
ROCKFORD       MOSUNNY   71  60  68 VRB3      30.22R
PEORIA         SUNNY     73  56  54 SE5       30.21R
$$

NOTE: "FAIR" INDICATES FEW OR NO CLOUDS BELOW 12,000 FEET WITH NO
SIGNIFICANT WEATHER AND/OR OBSTRUCTIONS TO VISIBILITY. WIND
SPEEDS ARE IN MILES-PER-HOUR.



USA.gov is the U.S. government's official web portal to all federal, state and local government web resources and services.